{"data":{"norad_id":64455,"epoch":"2026-05-25T02:50:44.685600Z","epoch_age_seconds":64678,"freshness":"FRESH","line1":"1 64455U 25130T   26145.11857275  .00026609  00000+0  79595-3 0  9999","line2":"2 64455  53.1597  92.8977 0001149  78.0255 282.0876 15.34397636 52412","mean_motion":15.34397636,"eccentricity":0.0001149,"inclination_deg":53.1597,"raan_deg":92.8977,"arg_perigee_deg":78.0255,"mean_anomaly_deg":282.0876,"bstar":0.00079595,"rev_number":5241,"period_min":93.847902669735,"perigee_km":461.92425317139,"apogee_km":463.49627987324,"semimajor_km":6840.8472665223,"source":"CELESTRAK","updated_at":"2026-05-25T13:38:20.451844Z"}}